| time (UTC) | temp F | wind direction | speed MPH | gust MPH | rain 1hr in | rain 24hr in | rain mn in | humidity % | barometer mb |
| 20260509141503 | 49 | 136 | 1.0 | 3.0 | 0.01 | 0.01 | 0.01 | 79 | 1015.8 |
| 20260509141003 | 49 | 135 | 0.0 | 1.0 | 0.01 | 0.01 | 0.01 | 78 | 1015.7 |
| 20260509140504 | 49 | 135 | 0.0 | 2.0 | 0.01 | 0.01 | 0.01 | 77 | 1015.7 |
| 20260509140003 | 49 | 135 | 0.0 | 2.0 | 0.00 | 0.00 | 0.00 | 75 | 1015.5 |
| 20260509135503 | 50 | 135 | 0.0 | 3.0 | 0.00 | 0.00 | 0.00 | 76 | 1015.4 |
| 20260509135003 | 49 | 135 | 0.0 | 3.0 | 0.00 | 0.00 | 0.00 | 74 | 1015.5 |
| 20260509134502 | 50 | 137 | 0.0 | 2.0 | 0.00 | 0.00 | 0.00 | 73 | 1015.4 |
| 20260509134005 | 50 | 137 | 0.0 | 2.0 | 0.00 | 0.00 | 0.00 | 72 | 1015.3 |
| 20260509133503 | 50 | 137 | 0.0 | 2.0 | 0.00 | 0.00 | 0.00 | 72 | 1015.4 |
| 20260509133002 | 50 | 137 | 0.0 | 4.0 | 0.00 | 0.00 | 0.00 | 71 | 1015.4 |
| 20260509132502 | 50 | 137 | 2.0 | 4.0 | 0.00 | 0.00 | 0.00 | 69 | 1015.3 |
| 20260509132001 | 51 | 174 | 0.0 | 3.0 | 0.00 | 0.00 | 0.00 | 67 | 1015.3 |
| 20260509131501 | 51 | 174 | 0.0 | 2.0 | 0.00 | 0.00 | 0.00 | 67 | 1015.4 |
| 20260509131001 | 51 | 174 | 0.0 | 2.0 | 0.00 | 0.00 | 0.00 | 66 | 1015.4 |
| 20260509130600 | 51 | 174 | 0.0 | 3.0 | 0.00 | 0.00 | 0.00 | 66 | 1015.4 |
| 20260509130127 | 50 | 177 | 0.0 | 3.0 | 0.00 | 0.00 | 0.00 | 65 | 1015.3 |
| 20260509125558 | 50 | 177 | 0.0 | 4.0 | 0.00 | 0.00 | 0.00 | 65 | 1015.4 |
| 20260509125057 | 50 | 175 | 1.0 | 4.0 | 0.00 | 0.00 | 0.00 | 65 | 1015.5 |
| 20260509124556 | 50 | 172 | 1.0 | 5.0 | 0.00 | 0.00 | 0.00 | 67 | 1015.5 |
| 20260509124055 | 50 | 211 | 1.0 | 3.0 | 0.00 | 0.00 | 0.00 | 70 | 1015.5 |
| 20260509123553 | 49 | 211 | 0.0 | 2.0 | 0.00 | 0.00 | 0.00 | 72 | 1015.6 |
| 20260509123118 | 49 | 211 | 0.0 | 2.0 | 0.00 | 0.00 | 0.00 | 73 | 1015.6 |
| 20260509122551 | 49 | 210 | 0.0 | 2.0 | 0.00 | 0.00 | 0.00 | 76 | 1015.5 |
| 20260509122051 | 49 | 210 | 0.0 | 1.0 | 0.00 | 0.00 | 0.00 | 78 | 1015.4 |
| 20260509121549 | 48 | 211 | 0.0 | 1.0 | 0.00 | 0.00 | 0.00 | 78 | 1015.3 |
| 20260509121049 | 48 | 211 | 0.0 | 0.0 | 0.00 | 0.00 | 0.00 | 79 | 1015.2 |
| 20260509120548 | 47 | 211 | 0.0 | 1.0 | 0.00 | 0.00 | 0.00 | 79 | 1015.2 |
| 20260509120051 | 47 | 210 | 0.0 | 1.0 | 0.00 | 0.00 | 0.00 | 80 | 1015.4 |
| 20260509115547 | 47 | 211 | 0.0 | 0.0 | 0.00 | 0.00 | 0.00 | 81 | 1015.3 |
| 20260509115044 | 46 | 210 | 0.0 | 0.0 | 0.00 | 0.00 | 0.00 | 82 | 1015.3 |
| 20260509114611 | 46 | 211 | 0.0 | 0.0 | 0.00 | 0.00 | 0.00 | 82 | 1015.4 |
| 20260509114042 | 45 | 210 | 0.0 | 0.0 | 0.00 | 0.00 | 0.00 | 83 | 1015.4 |
| 20260509113540 | 44 | 210 | 0.0 | 1.0 | 0.00 | 0.00 | 0.00 | 85 | 1015.5 |
| 20260509113039 | 44 | 211 | 0.0 | 2.0 | 0.00 | 0.00 | 0.00 | 86 | 1015.6 |
| 20260509112540 | 44 | 211 | 0.0 | 0.0 | 0.00 | 0.00 | 0.00 | 87 | 1015.7 |
| 20260509112037 | 43 | 211 | 0.0 | 0.0 | 0.00 | 0.00 | 0.00 | 88 | 1015.7 |
| 20260509111536 | 43 | 211 | 0.0 | 0.0 | 0.00 | 0.00 | 0.00 | 88 | 1015.7 |
| 20260509111035 | 43 | 210 | 0.0 | 0.0 | 0.00 | 0.00 | 0.00 | 88 | 1015.6 |
| 20260509110533 | 42 | 210 | 0.0 | 0.0 | 0.00 | 0.00 | 0.00 | 89 | 1015.6 |
| 20260509110033 | 41 | 211 | 0.0 | 0.0 | 0.00 | 0.00 | 0.00 | 89 | 1015.6 |
| 20260509105532 | 41 | 211 | 0.0 | 0.0 | 0.00 | 0.00 | 0.00 | 89 | 1015.6 |
| 20260509105031 | 41 | 211 | 0.0 | 0.0 | 0.00 | 0.00 | 0.00 | 89 | 1015.7 |
| 20260509104530 | 40 | 211 | 0.0 | 0.0 | 0.00 | 0.00 | 0.00 | 89 | 1015.6 |
| 20260509104028 | 40 | 211 | 0.0 | 1.0 | 0.00 | 0.00 | 0.00 | 89 | 1015.6 |
| 20260509103528 | 39 | 210 | 0.0 | 1.0 | 0.00 | 0.00 | 0.00 | 89 | 1015.7 |
| 20260509103028 | 39 | 211 | 0.0 | 1.0 | 0.00 | 0.00 | 0.00 | 89 | 1015.8 |
| 20260509102527 | 39 | 210 | 0.0 | 1.0 | 0.00 | 0.00 | 0.00 | 89 | 1015.7 |
| 20260509102026 | 39 | 211 | 0.0 | 1.0 | 0.00 | 0.00 | 0.00 | 89 | 1015.6 |
| 20260509101535 | 38 | 211 | 0.0 | 0.0 | 0.00 | 0.00 | 0.00 | 89 | 1015.4 |
| 20260509101027 | 37 | 211 | 0.0 | 0.0 | 0.00 | 0.00 | 0.00 | 89 | 1015.4 |
| 20260509100524 | 37 | 210 | 0.0 | 0.0 | 0.00 | 0.00 | 0.00 | 89 | 1015.4 |
| 20260509100023 | 36 | 211 | 0.0 | 0.0 | 0.00 | 0.00 | 0.00 | 88 | 1015.2 |
| 20260509095523 | 36 | 210 | 0.0 | 0.0 | 0.00 | 0.00 | 0.00 | 88 | 1015.2 |
| 20260509095023 | 36 | 211 | 0.0 | 0.0 | 0.00 | 0.00 | 0.00 | 88 | 1015.1 |
| 20260509094530 | 35 | 210 | 0.0 | 0.0 | 0.00 | 0.00 | 0.00 | 88 | 1015.0 |
| 20260509094020 | 35 | 211 | 0.0 | 0.0 | 0.00 | 0.00 | 0.00 | 88 | 1014.9 |
| 20260509093519 | 35 | 211 | 0.0 | 0.0 | 0.00 | 0.00 | 0.00 | 88 | 1014.8 |
| 20260509093019 | 35 | 211 | 0.0 | 0.0 | 0.00 | 0.00 | 0.00 | 88 | 1015.0 |
| 20260509092517 | 35 | 210 | 0.0 | 0.0 | 0.00 | 0.00 | 0.00 | 87 | 1015.0 |
| 20260509092017 | 35 | 212 | 0.0 | 0.0 | 0.00 | 0.00 | 0.00 | 87 | 1014.9 |
| 20260509091517 | 35 | 210 | 0.0 | 0.0 | 0.00 | 0.00 | 0.00 | 87 | 1014.8 |
| 20260509091017 | 35 | 211 | 0.0 | 0.0 | 0.00 | 0.00 | 0.00 | 88 | 1015.0 |
| 20260509090518 | 35 | 210 | 0.0 | 1.0 | 0.00 | 0.00 | 0.00 | 87 | 1014.9 |
| 20260509090015 | 35 | 211 | 0.0 | 1.0 | 0.00 | 0.00 | 0.00 | 87 | 1014.7 |
| 20260509085514 | 35 | 211 | 0.0 | 0.0 | 0.00 | 0.00 | 0.00 | 87 | 1014.6 |
| 20260509085014 | 36 | 210 | 0.0 | 0.0 | 0.00 | 0.00 | 0.00 | 87 | 1014.6 |
| 20260509084513 | 36 | 211 | 0.0 | 0.0 | 0.00 | 0.00 | 0.00 | 87 | 1014.7 |
| 20260509084016 | 36 | 211 | 0.0 | 0.0 | 0.00 | 0.00 | 0.00 | 87 | 1014.6 |
| 20260509083511 | 36 | 211 | 0.0 | 0.0 | 0.00 | 0.00 | 0.00 | 87 | 1014.6 |
| 20260509083011 | 36 | 211 | 0.0 | 0.0 | 0.00 | 0.00 | 0.00 | 87 | 1014.6 |
| 20260509082514 | 36 | 210 | 0.0 | 0.0 | 0.00 | 0.00 | 0.00 | 87 | 1014.5 |
| 20260509082010 | 36 | 210 | 0.0 | 0.0 | 0.00 | 0.00 | 0.00 | 87 | 1014.5 |
| 20260509081510 | 36 | 211 | 0.0 | 0.0 | 0.00 | 0.00 | 0.00 | 87 | 1014.5 |
| 20260509081009 | 36 | 211 | 0.0 | 0.0 | 0.00 | 0.00 | 0.00 | 86 | 1014.5 |
| 20260509080509 | 36 | 210 | 0.0 | 0.0 | 0.00 | 0.00 | 0.00 | 86 | 1014.5 |
| 20260509080008 | 36 | 210 | 0.0 | 0.0 | 0.00 | 0.00 | 0.00 | 86 | 1014.6 |
| 20260509075510 | 36 | 210 | 0.0 | 0.0 | 0.00 | 0.00 | 0.00 | 86 | 1014.4 |
| 20260509075007 | 37 | 211 | 0.0 | 0.0 | 0.00 | 0.00 | 0.00 | 86 | 1014.4 |
| 20260509074505 | 37 | 211 | 0.0 | 1.0 | 0.00 | 0.00 | 0.00 | 86 | 1014.4 |
| 20260509074006 | 37 | 211 | 0.0 | 1.0 | 0.00 | 0.00 | 0.00 | 86 | 1014.4 |
| 20260509073504 | 37 | 211 | 0.0 | 0.0 | 0.00 | 0.00 | 0.00 | 86 | 1014.3 |
| 20260509073008 | 37 | 211 | 0.0 | 0.0 | 0.00 | 0.00 | 0.00 | 86 | 1014.2 |
| 20260509072504 | 37 | 210 | 0.0 | 0.0 | 0.00 | 0.00 | 0.00 | 86 | 1014.3 |
| 20260509072006 | 37 | 210 | 0.0 | 0.0 | 0.00 | 0.00 | 0.00 | 85 | 1014.3 |
| 20260509071504 | 37 | 211 | 0.0 | 0.0 | 0.00 | 0.00 | 0.00 | 85 | 1014.3 |
| 20260509071009 | 37 | 211 | 0.0 | 0.0 | 0.00 | 0.00 | 0.00 | 85 | 1014.2 |
| 20260509070504 | 37 | 211 | 0.0 | 0.0 | 0.00 | 0.00 | 0.00 | 85 | 1014.2 |
| 20260509070004 | 37 | 211 | 0.0 | 0.0 | 0.00 | 0.00 | 0.00 | 85 | 1014.3 |
| 20260509065503 | 37 | 211 | 0.0 | 0.0 | 0.00 | 0.00 | 0.00 | 85 | 1014.2 |
| 20260509065003 | 37 | 211 | 0.0 | 0.0 | 0.00 | 0.00 | 0.00 | 85 | 1014.4 |
| 20260509064503 | 37 | 211 | 0.0 | 0.0 | 0.00 | 0.00 | 0.00 | 85 | 1014.4 |
| 20260509064005 | 37 | 211 | 0.0 | 1.0 | 0.00 | 0.00 | 0.00 | 85 | 1014.4 |
| 20260509063500 | 37 | 211 | 0.0 | 1.0 | 0.00 | 0.00 | 0.00 | 84 | 1014.5 |
| 20260509063100 | 37 | 211 | 0.0 | 0.0 | 0.00 | 0.00 | 0.00 | 84 | 1014.4 |
| 20260509062604 | 37 | 211 | 0.0 | 2.0 | 0.00 | 0.00 | 0.00 | 84 | 1014.4 |
| 20260509062059 | 38 | 211 | 0.0 | 2.0 | 0.00 | 0.00 | 0.00 | 84 | 1014.5 |
| 20260509061607 | 38 | 210 | 0.0 | 2.0 | 0.00 | 0.00 | 0.00 | 84 | 1014.5 |
| 20260509061057 | 38 | 211 | 0.0 | 2.0 | 0.00 | 0.00 | 0.00 | 84 | 1014.4 |
| 20260509060556 | 38 | 211 | 0.0 | 2.0 | 0.00 | 0.00 | 0.00 | 84 | 1014.4 |
| 20260509060056 | 38 | 211 | 0.0 | 0.0 | 0.00 | 0.00 | 0.00 | 84 | 1014.3 |
| 20260509055555 | 38 | 210 | 0.0 | 0.0 | 0.00 | 0.00 | 0.00 | 83 | 1014.2 |
| 20260509055057 | 38 | 210 | 0.0 | 0.0 | 0.00 | 0.00 | 0.00 | 83 | 1014.3 |
| 20260509054609 | 38 | 210 | 0.0 | 0.0 | 0.00 | 0.00 | 0.00 | 82 | 1014.3 |
| 20260509054053 | 38 | 211 | 0.0 | 0.0 | 0.00 | 0.00 | 0.00 | 82 | 1014.2 |
| 20260509053551 | 39 | 211 | 0.0 | 0.0 | 0.00 | 0.00 | 0.00 | 82 | 1014.2 |
| 20260509053056 | 39 | 211 | 0.0 | 0.0 | 0.00 | 0.00 | 0.00 | 82 | 1014.2 |
| 20260509052549 | 39 | 211 | 0.0 | 0.0 | 0.00 | 0.00 | 0.00 | 82 | 1014.2 |
| 20260509052050 | 39 | 211 | 0.0 | 0.0 | 0.00 | 0.00 | 0.00 | 82 | 1014.1 |
| 20260509051549 | 39 | 210 | 0.0 | 0.0 | 0.00 | 0.00 | 0.00 | 81 | 1014.1 |
| 20260509051048 | 40 | 210 | 0.0 | 0.0 | 0.00 | 0.00 | 0.00 | 81 | 1014.0 |
| 20260509050548 | 40 | 210 | 0.0 | 0.0 | 0.00 | 0.00 | 0.00 | 81 | 1014.1 |
| 20260509050046 | 40 | 210 | 0.0 | 0.0 | 0.00 | 0.00 | 0.00 | 80 | 1013.9 |
| 20260509045547 | 40 | 210 | 0.0 | 0.0 | 0.00 | 0.00 | 0.00 | 80 | 1014.0 |
| 20260509045045 | 40 | 211 | 0.0 | 2.0 | 0.00 | 0.00 | 0.00 | 79 | 1013.9 |
| 20260509044544 | 40 | 211 | 0.0 | 2.0 | 0.00 | 0.00 | 0.00 | 79 | 1014.0 |
| 20260509044044 | 41 | 210 | 0.0 | 2.0 | 0.00 | 0.00 | 0.00 | 79 | 1013.9 |
| 20260509043544 | 41 | 210 | 0.0 | 1.0 | 0.00 | 0.00 | 0.00 | 79 | 1013.9 |
| 20260509043041 | 41 | 211 | 0.0 | 1.0 | 0.00 | 0.00 | 0.00 | 78 | 1013.8 |
| 20260509042540 | 41 | 211 | 0.0 | 0.0 | 0.00 | 0.00 | 0.00 | 77 | 1013.8 |
| 20260509042040 | 41 | 211 | 0.0 | 0.0 | 0.00 | 0.00 | 0.00 | 77 | 1013.8 |
| 20260509041539 | 41 | 211 | 0.0 | 0.0 | 0.00 | 0.00 | 0.00 | 77 | 1013.7 |
| 20260509041038 | 41 | 211 | 0.0 | 0.0 | 0.00 | 0.00 | 0.00 | 77 | 1013.8 |
| 20260509040537 | 42 | 211 | 0.0 | 4.0 | 0.00 | 0.00 | 0.00 | 76 | 1013.8 |
| 20260509040042 | 42 | 211 | 0.0 | 4.0 | 0.00 | 0.00 | 0.00 | 76 | 1013.8 |
| 20260509035539 | 42 | 211 | 0.0 | 3.0 | 0.00 | 0.00 | 0.00 | 75 | 1013.8 |
| 20260509035036 | 42 | 210 | 0.0 | 0.0 | 0.00 | 0.00 | 0.00 | 75 | 1013.8 |
| 20260509034539 | 42 | 211 | 0.0 | 0.0 | 0.00 | 0.00 | 0.00 | 75 | 1013.7 |
| 20260509034035 | 43 | 211 | 0.0 | 0.0 | 0.00 | 0.00 | 0.00 | 74 | 1013.7 |
| 20260509033537 | 43 | 211 | 0.0 | 0.0 | 0.00 | 0.00 | 0.00 | 73 | 1013.7 |
| 20260509033034 | 43 | 210 | 0.0 | 0.0 | 0.00 | 0.00 | 0.00 | 73 | 1013.6 |
| 20260509032534 | 43 | 210 | 0.0 | 0.0 | 0.00 | 0.00 | 0.00 | 72 | 1013.5 |
| 20260509032033 | 44 | 211 | 0.0 | 0.0 | 0.00 | 0.00 | 0.00 | 72 | 1013.6 |
| 20260509031533 | 44 | 210 | 0.0 | 0.0 | 0.00 | 0.00 | 0.00 | 72 | 1013.6 |
| 20260509031032 | 44 | 210 | 0.0 | 0.0 | 0.00 | 0.00 | 0.00 | 71 | 1013.5 |
| 20260509030532 | 45 | 210 | 0.0 | 0.0 | 0.00 | 0.00 | 0.00 | 72 | 1013.5 |
| 20260509030034 | 45 | 211 | 0.0 | 1.0 | 0.00 | 0.00 | 0.00 | 71 | 1013.5 |
| 20260509025531 | 45 | 211 | 0.0 | 2.0 | 0.00 | 0.00 | 0.00 | 70 | 1013.5 |
| 20260509025034 | 45 | 210 | 0.0 | 2.0 | 0.00 | 0.00 | 0.00 | 69 | 1013.4 |
| 20260509024532 | 46 | 211 | 0.0 | 2.0 | 0.00 | 0.00 | 0.00 | 68 | 1013.3 |
| 20260509024032 | 46 | 211 | 0.0 | 2.0 | 0.00 | 0.00 | 0.00 | 66 | 1013.4 |
| 20260509023532 | 46 | 211 | 0.0 | 0.0 | 0.00 | 0.00 | 0.00 | 66 | 1013.4 |
| 20260509023032 | 47 | 211 | 0.0 | 2.0 | 0.00 | 0.00 | 0.00 | 65 | 1013.5 |
| 20260509022532 | 47 | 210 | 0.0 | 2.0 | 0.00 | 0.00 | 0.00 | 64 | 1013.3 |
| 20260509022029 | 47 | 210 | 0.0 | 2.0 | 0.00 | 0.00 | 0.00 | 62 | 1013.2 |
| 20260509021529 | 48 | 210 | 0.0 | 2.0 | 0.00 | 0.00 | 0.00 | 61 | 1013.1 |
| 20260509021028 | 48 | 211 | 0.0 | 3.0 | 0.00 | 0.00 | 0.00 | 60 | 1013.1 |
| 20260509020527 | 48 | 210 | 1.0 | 3.0 | 0.00 | 0.00 | 0.00 | 59 | 1012.9 |
| 20260509020027 | 48 | 211 | 0.0 | 3.0 | 0.00 | 0.00 | 0.00 | 59 | 1013.0 |
| 20260509015526 | 49 | 211 | 0.0 | 2.0 | 0.00 | 0.00 | 0.00 | 58 | 1012.8 |
| 20260509015025 | 49 | 210 | 0.0 | 3.0 | 0.00 | 0.00 | 0.00 | 57 | 1012.8 |
| 20260509014536 | 50 | 210 | 1.0 | 3.0 | 0.00 | 0.00 | 0.00 | 55 | 1012.6 |
| 20260509014024 | 50 | 211 | 0.0 | 3.0 | 0.00 | 0.00 | 0.00 | 55 | 1012.5 |
| 20260509013523 | 50 | 210 | 0.0 | 5.0 | 0.00 | 0.00 | 0.00 | 54 | 1012.6 |
| 20260509013024 | 50 | 210 | 2.0 | 6.0 | 0.00 | 0.00 | 0.00 | 53 | 1012.5 |
| 20260509012522 | 51 | 210 | 1.0 | 7.0 | 0.00 | 0.00 | 0.00 | 53 | 1012.4 |
| 20260509012022 | 51 | 223 | 3.0 | 7.0 | 0.00 | 0.00 | 0.00 | 52 | 1012.3 |
| 20260509011520 | 51 | 239 | 2.0 | 9.0 | 0.00 | 0.00 | 0.00 | 52 | 1012.2 |
| 20260509011020 | 51 | 276 | 4.0 | 9.0 | 0.00 | 0.00 | 0.00 | 51 | 1012.1 |
| 20260509010519 | 51 | 240 | 4.0 | 9.0 | 0.00 | 0.00 | 0.00 | 51 | 1012.0 |
| 20260509010018 | 51 | 280 | 3.0 | 13.0 | 0.00 | 0.00 | 0.00 | 51 | 1011.9 |
| 20260509005519 | 51 | 236 | 5.0 | 13.0 | 0.00 | 0.00 | 0.00 | 51 | 1011.8 |
| 20260509005018 | 51 | 233 | 4.0 | 9.0 | 0.00 | 0.00 | 0.00 | 51 | 1011.6 |
| 20260509004516 | 51 | 219 | 3.0 | 11.0 | 0.00 | 0.00 | 0.00 | 50 | 1011.5 |
| 20260509004016 | 52 | 247 | 3.0 | 11.0 | 0.00 | 0.00 | 0.00 | 50 | 1011.5 |
| 20260509003515 | 52 | 224 | 2.0 | 8.0 | 0.00 | 0.00 | 0.00 | 50 | 1011.4 |
| 20260509003013 | 52 | 240 | 3.0 | 8.0 | 0.00 | 0.00 | 0.00 | 49 | 1011.3 |
| 20260509002513 | 52 | 232 | 2.0 | 8.0 | 0.00 | 0.00 | 0.00 | 49 | 1011.1 |
| 20260509002012 | 52 | 231 | 1.0 | 10.0 | 0.00 | 0.00 | 0.00 | 48 | 1011.0 |
| 20260509001512 | 53 | 222 | 3.0 | 10.0 | 0.00 | 0.00 | 0.00 | 47 | 1011.0 |
| 20260509001012 | 53 | 226 | 3.0 | 11.0 | 0.00 | 0.00 | 0.00 | 46 | 1011.0 |
| 20260509000511 | 53 | 249 | 4.0 | 11.0 | 0.00 | 0.00 | 0.00 | 46 | 1010.8 |
| 20260509000010 | 53 | 233 | 2.0 | 8.0 | 0.00 | 0.00 | 0.00 | 46 | 1010.8 |
| 20260508235512 | 53 | 264 | 2.0 | 7.0 | 0.00 | 0.00 | 0.00 | 46 | 1010.7 |
| 20260508235010 | 54 | 212 | 4.0 | 7.0 | 0.00 | 0.00 | 0.00 | 45 | 1010.6 |
| 20260508234509 | 54 | 228 | 1.0 | 7.0 | 0.00 | 0.00 | 0.00 | 45 | 1010.5 |
| 20260508234011 | 54 | 266 | 1.0 | 8.0 | 0.00 | 0.00 | 0.00 | 45 | 1010.4 |
| 20260508233509 | 54 | 266 | 2.0 | 10.0 | 0.00 | 0.00 | 0.00 | 43 | 1010.3 |
| 20260508233007 | 55 | 245 | 2.0 | 10.0 | 0.00 | 0.00 | 0.00 | 43 | 1010.2 |
| 20260508232507 | 55 | 273 | 5.0 | 10.0 | 0.00 | 0.00 | 0.00 | 42 | 1010.2 |
| 20260508232007 | 55 | 247 | 2.0 | 9.0 | 0.00 | 0.00 | 0.00 | 42 | 1010.2 |
| 20260508231507 | 55 | 262 | 2.0 | 9.0 | 0.00 | 0.00 | 0.00 | 41 | 1010.1 |
| 20260508231009 | 56 | 325 | 4.0 | 10.0 | 0.00 | 0.00 | 0.00 | 41 | 1010.0 |
| 20260508230506 | 56 | 240 | 4.0 | 10.0 | 0.00 | 0.00 | 0.00 | 41 | 1010.1 |
| 20260508230007 | 56 | 239 | 4.0 | 11.0 | 0.00 | 0.00 | 0.00 | 39 | 1009.9 |
| 20260508225506 | 57 | 295 | 3.0 | 10.0 | 0.00 | 0.00 | 0.00 | 40 | 1009.9 |
| 20260508225007 | 57 | 296 | 1.0 | 8.0 | 0.00 | 0.00 | 0.00 | 40 | 1010.0 |
| 20260508224506 | 56 | 269 | 3.0 | 10.0 | 0.00 | 0.00 | 0.00 | 40 | 1009.9 |
| 20260508224005 | 57 | 236 | 4.0 | 11.0 | 0.00 | 0.00 | 0.00 | 39 | 1010.0 |
| 20260508223505 | 57 | 266 | 3.0 | 11.0 | 0.00 | 0.00 | 0.00 | 39 | 1009.9 |
| 20260508223008 | 57 | 215 | 2.0 | 14.0 | 0.00 | 0.00 | 0.00 | 38 | 1009.8 |
| 20260508222505 | 58 | 278 | 6.0 | 14.0 | 0.00 | 0.00 | 0.00 | 38 | 1009.8 |
| 20260508222008 | 58 | 249 | 2.0 | 12.0 | 0.00 | 0.00 | 0.00 | 38 | 1009.8 |
| 20260508221505 | 58 | 264 | 3.0 | 14.0 | 0.00 | 0.00 | 0.00 | 38 | 1009.7 |
| 20260508221005 | 58 | 250 | 3.0 | 14.0 | 0.00 | 0.00 | 0.00 | 37 | 1009.6 |
| 20260508220505 | 58 | 260 | 2.0 | 12.0 | 0.00 | 0.00 | 0.00 | 37 | 1009.6 |
| 20260508220018 | 59 | 239 | 6.0 | 14.0 | 0.00 | 0.00 | 0.00 | 37 | 1009.6 |
| 20260508215505 | 59 | 226 | 6.0 | 15.0 | 0.00 | 0.00 | 0.00 | 37 | 1009.5 |
| 20260508215005 | 59 | 337 | 7.0 | 15.0 | 0.00 | 0.00 | 0.00 | 36 | 1009.4 |
| 20260508214505 | 59 | 230 | 4.0 | 14.0 | 0.00 | 0.00 | 0.00 | 37 | 1009.4 |
| 20260508214005 | 59 | 266 | 2.0 | 12.0 | 0.00 | 0.00 | 0.00 | 37 | 1009.3 |
| 20260508213503 | 60 | 240 | 5.0 | 13.0 | 0.00 | 0.00 | 0.00 | 35 | 1009.3 |
| 20260508213004 | 60 | 233 | 7.0 | 15.0 | 0.00 | 0.00 | 0.00 | 36 | 1009.4 |
| 20260508212504 | 60 | 226 | 6.0 | 15.0 | 0.00 | 0.00 | 0.00 | 36 | 1009.3 |
| 20260508212004 | 59 | 218 | 5.0 | 11.0 | 0.00 | 0.00 | 0.00 | 36 | 1009.3 |
| 20260508211503 | 58 | 291 | 4.0 | 11.0 | 0.00 | 0.00 | 0.00 | 36 | 1009.3 |
| 20260508211002 | 59 | 254 | 6.0 | 12.0 | 0.00 | 0.00 | 0.00 | 37 | 1009.4 |
| 20260508210601 | 59 | 285 | 6.0 | 12.0 | 0.00 | 0.00 | 0.00 | 36 | 1009.3 |
| 20260508210100 | 61 | 237 | 3.0 | 11.0 | 0.00 | 0.00 | 0.00 | 36 | 1009.2 |
| 20260508205658 | 61 | 231 | 2.0 | 9.0 | 0.00 | 0.00 | 0.00 | 37 | 1009.2 |
| 20260508205057 | 59 | 195 | 3.0 | 11.0 | 0.00 | 0.00 | 0.00 | 38 | 1009.0 |
| 20260508204605 | 58 | 255 | 6.0 | 11.0 | 0.00 | 0.00 | 0.00 | 36 | 1009.1 |
| 20260508204057 | 58 | 265 | 7.0 | 14.0 | 0.00 | 0.00 | 0.00 | 37 | 1009.0 |
| 20260508203554 | 59 | 237 | 5.0 | 17.0 | 0.00 | 0.00 | 0.00 | 35 | 1009.0 |
| 20260508203054 | 61 | 206 | 7.0 | 17.0 | 0.00 | 0.00 | 0.00 | 34 | 1008.9 |
| 20260508202553 | 62 | 344 | 7.0 | 13.0 | 0.00 | 0.00 | 0.00 | 36 | 1008.7 |
| 20260508202056 | 60 | 295 | 3.0 | 12.0 | 0.00 | 0.00 | 0.00 | 35 | 1008.8 |
| 20260508201553 | 59 | 257 | 5.0 | 12.0 | 0.00 | 0.00 | 0.00 | 37 | 1008.8 |
| 20260508201053 | 60 | 249 | 8.0 | 15.0 | 0.00 | 0.00 | 0.00 | 35 | 1008.8 |
| 20260508200552 | 60 | 219 | 4.0 | 12.0 | 0.00 | 0.00 | 0.00 | 36 | 1008.7 |
| 20260508200052 | 58 | 260 | 6.0 | 12.0 | 0.00 | 0.00 | 0.00 | 35 | 1008.8 |
| 20260508195552 | 60 | 256 | 7.0 | 16.0 | 0.00 | 0.00 | 0.00 | 34 | 1008.8 |
| 20260508195051 | 60 | 249 | 9.0 | 16.0 | 0.00 | 0.00 | 0.00 | 35 | 1008.8 |
| 20260508194551 | 60 | 264 | 8.0 | 15.0 | 0.00 | 0.00 | 0.00 | 33 | 1008.7 |
| 20260508194051 | 61 | 269 | 8.0 | 14.0 | 0.00 | 0.00 | 0.00 | 34 | 1008.7 |
| 20260508193550 | 61 | 268 | 6.0 | 14.0 | 0.00 | 0.00 | 0.00 | 34 | 1008.8 |
| 20260508193053 | 61 | 335 | 5.0 | 16.0 | 0.00 | 0.00 | 0.00 | 35 | 1008.7 |
| 20260508192549 | 59 | 288 | 10.0 | 16.0 | 0.00 | 0.00 | 0.00 | 34 | 1008.8 |
| 20260508192050 | 58 | 290 | 6.0 | 16.0 | 0.00 | 0.00 | 0.00 | 35 | 1008.7 |
| 20260508191549 | 58 | 228 | 8.0 | 16.0 | 0.00 | 0.00 | 0.00 | 35 | 1008.7 |
| 20260508191048 | 58 | 251 | 8.0 | 12.0 | 0.00 | 0.00 | 0.00 | 34 | 1008.7 |
| 20260508190548 | 59 | 241 | 6.0 | 14.0 | 0.00 | 0.00 | 0.00 | 36 | 1008.7 |
| 20260508190103 | 60 | 252 | 9.0 | 15.0 | 0.00 | 0.00 | 0.00 | 34 | 1008.9 |
| 20260508185547 | 59 | 284 | 7.0 | 18.0 | 0.00 | 0.00 | 0.00 | 34 | 1008.8 |
| 20260508185048 | 59 | 241 | 5.0 | 20.0 | 0.00 | 0.00 | 0.00 | 35 | 1008.7 |
| 20260508184551 | 59 | 254 | 6.0 | 15.0 | 0.00 | 0.00 | 0.00 | 37 | 1008.7 |
| 20260508184050 | 58 | 269 | 7.0 | 14.0 | 0.00 | 0.00 | 0.00 | 36 | 1008.9 |
| 20260508183550 | 58 | 234 | 5.0 | 16.0 | 0.00 | 0.00 | 0.00 | 34 | 1008.6 |
| 20260508183047 | 59 | 277 | 6.0 | 16.0 | 0.00 | 0.00 | 0.00 | 36 | 1008.8 |
| 20260508182545 | 59 | 245 | 7.0 | 11.0 | 0.00 | 0.00 | 0.00 | 35 | 1008.7 |
| 20260508182045 | 58 | 247 | 3.0 | 14.0 | 0.00 | 0.00 | 0.00 | 36 | 1008.6 |
| 20260508181604 | 58 | 263 | 6.0 | 14.0 | 0.00 | 0.00 | 0.00 | 36 | 1008.7 |
| 20260508181044 | 58 | 233 | 6.0 | 16.0 | 0.00 | 0.00 | 0.00 | 35 | 1008.5 |
| 20260508180543 | 58 | 250 | 8.0 | 16.0 | 0.00 | 0.00 | 0.00 | 37 | 1008.6 |
| 20260508180053 | 58 | 291 | 6.0 | 15.0 | 0.00 | 0.00 | 0.00 | 40 | 1008.6 |
| 20260508175543 | 57 | 228 | 5.0 | 14.0 | 0.00 | 0.00 | 0.00 | 40 | 1008.8 |
| 20260508175044 | 57 | 245 | 4.0 | 19.0 | 0.00 | 0.00 | 0.00 | 39 | 1008.7 |
| 20260508174556 | 58 | 273 | 7.0 | 19.0 | 0.00 | 0.00 | 0.00 | 38 | 1008.7 |
| 20260508174046 | 59 | 277 | 5.0 | 11.0 | 0.00 | 0.00 | 0.00 | 38 | 1008.8 |
| 20260508173543 | 58 | 294 | 6.0 | 13.0 | 0.00 | 0.00 | 0.00 | 39 | 1008.9 |
| 20260508173042 | 59 | 239 | 4.0 | 13.0 | 0.00 | 0.00 | 0.00 | 40 | 1008.7 |
| 20260508172542 | 58 | 259 | 6.0 | 14.0 | 0.00 | 0.00 | 0.00 | 39 | 1008.7 |
| 20260508172042 | 58 | 214 | 6.0 | 15.0 | 0.00 | 0.00 | 0.00 | 38 | 1008.8 |
| 20260508171542 | 59 | 211 | 7.0 | 15.0 | 0.00 | 0.00 | 0.00 | 38 | 1008.7 |
| 20260508171045 | 57 | 233 | 5.0 | 18.0 | 0.00 | 0.00 | 0.00 | 40 | 1008.7 |
| 20260508170542 | 58 | 272 | 8.0 | 18.0 | 0.00 | 0.00 | 0.00 | 39 | 1008.7 |
| 20260508170042 | 59 | 262 | 5.0 | 15.0 | 0.00 | 0.00 | 0.00 | 38 | 1008.8 |
| 20260508165542 | 58 | 261 | 6.0 | 17.0 | 0.00 | 0.00 | 0.00 | 38 | 1008.8 |
| 20260508165043 | 58 | 224 | 7.0 | 17.0 | 0.00 | 0.00 | 0.00 | 41 | 1008.7 |
| 20260508164542 | 57 | 255 | 4.0 | 15.0 | 0.00 | 0.00 | 0.00 | 39 | 1008.6 |
| 20260508164042 | 57 | 201 | 6.0 | 15.0 | 0.00 | 0.00 | 0.00 | 42 | 1008.7 |
| 20260508163541 | 56 | 238 | 5.0 | 10.0 | 0.00 | 0.00 | 0.00 | 38 | 1008.7 |
| 20260508163041 | 57 | 186 | 2.0 | 15.0 | 0.00 | 0.00 | 0.00 | 39 | 1008.7 |
| 20260508162540 | 57 | 222 | 5.0 | 15.0 | 0.00 | 0.00 | 0.00 | 41 | 1008.8 |
| 20260508162042 | 60 | 286 | 6.0 | 13.0 | 0.00 | 0.00 | 0.00 | 39 | 1008.8 |
| 20260508161539 | 59 | 346 | 8.0 | 14.0 | 0.00 | 0.00 | 0.00 | 40 | 1008.9 |
| 20260508161041 | 57 | 230 | 7.0 | 15.0 | 0.00 | 0.00 | 0.00 | 37 | 1008.9 |
| 20260508160539 | 57 | 237 | 8.0 | 16.0 | 0.00 | 0.00 | 0.00 | 39 | 1009.1 |
| 20260508160039 | 58 | 216 | 7.0 | 15.0 | 0.00 | 0.00 | 0.00 | 39 | 1009.2 |
| 20260508155541 | 58 | 260 | 4.0 | 15.0 | 0.00 | 0.00 | 0.00 | 37 | 1009.1 |
| 20260508155041 | 58 | 260 | 5.0 | 15.0 | 0.00 | 0.00 | 0.00 | 37 | 1009.3 |
| 20260508154538 | 57 | 187 | 4.0 | 16.0 | 0.00 | 0.00 | 0.00 | 39 | 1009.4 |
| 20260508154038 | 58 | 222 | 5.0 | 16.0 | 0.00 | 0.00 | 0.00 | 41 | 1009.3 |
| 20260508153538 | 58 | 249 | 3.0 | 12.0 | 0.00 | 0.00 | 0.00 | 39 | 1009.5 |
| 20260508153037 | 56 | 253 | 6.0 | 15.0 | 0.00 | 0.00 | 0.00 | 43 | 1009.5 |
| 20260508152536 | 57 | 314 | 6.0 | 15.0 | 0.00 | 0.00 | 0.00 | 39 | 1009.4 |
| 20260508152036 | 58 | 329 | 6.0 | 13.0 | 0.00 | 0.00 | 0.00 | 39 | 1009.4 |
| 20260508151536 | 57 | 313 | 4.0 | 10.0 | 0.00 | 0.00 | 0.00 | 41 | 1009.4 |
| 20260508151036 | 55 | 289 | 5.0 | 11.0 | 0.00 | 0.00 | 0.00 | 41 | 1009.4 |
| 20260508150536 | 55 | 268 | 4.0 | 11.0 | 0.00 | 0.00 | 0.00 | 43 | 1009.4 |
| 20260508150036 | 55 | 254 | 5.0 | 11.0 | 0.00 | 0.00 | 0.00 | 43 | 1009.4 |
| 20260508145535 | 55 | 226 | 6.0 | 12.0 | 0.00 | 0.00 | 0.00 | 41 | 1009.6 |
| 20260508145034 | 56 | 260 | 5.0 | 12.0 | 0.00 | 0.00 | 0.00 | 41 | 1009.4 |
| 20260508144535 | 57 | 258 | 4.0 | 12.0 | 0.00 | 0.00 | 0.00 | 41 | 1009.4 |
| 20260508144035 | 59 | 304 | 7.0 | 13.0 | 0.00 | 0.00 | 0.00 | 40 | 1009.6 |
| 20260508143532 | 57 | 250 | 4.0 | 14.0 | 0.00 | 0.00 | 0.00 | 44 | 1009.6 |
| 20260508143032 | 57 | 304 | 7.0 | 18.0 | 0.00 | 0.00 | 0.00 | 40 | 1009.7 |
| 20260508142535 | 58 | 268 | 10.0 | 18.0 | 0.00 | 0.00 | 0.00 | 42 | 1009.7 |
| 20260508142031 | 57 | 349 | 7.0 | 15.0 | 0.00 | 0.00 | 0.00 | 40 | 1009.8 |
| 20260508141533 | 57 | 226 | 6.0 | 11.0 | 0.00 | 0.00 | 0.00 | 41 | 1009.6 |